Flag Weather past 2 weeks in Plano, Texas, U.S.A.

Now
57 °F

Fog.


Feels Like: 56 °F
Forecast: 49 / 72 °F
Wind: 7 mph from Southwest

Location: McKinney Municipal Airport

Current Time: Nov 23, 2014 at 6:37:08 AM

Latest Report: Nov 23, 2014 at 5:53 AM


Visibility: 2 mi

Pressure: 29.59 "Hg

Humidity: 100%

Dew point: 57 °F

Location of PlanoLocation

Historic Weather in Plano — Graph

°F

Plano temperature yesterday

Maximum temperature yesterday: 65 °F (at 2:53 PM)
Minimum temperature yesterday: 57 °F (at 10:53 PM)
Average temperature yesterday: 61 °F

Past Weeks' High & Low Weather Summary

 TemperatureHumidityPressure
High78 °F (Nov 10, 1:53 PM)100% (Nov 15, 11:53 PM)30.66 "Hg (Nov 15, 11:53 PM)
Low20 °F (Nov 18, 4:53 AM)21% (Nov 18, 2:53 PM)29.60 "Hg (Nov 10, 3:53 PM)
Average46 °F64%30.19 "Hg
* Reported Nov 8 4:53 AM — Nov 23 4:53 AM, Plano, Weather by CustomWeather, © 2014

Note: Actual official high and low records may vary slightly from our data, if they occured in-between our weather recording intervals... More about our weather records

Advertising

Plano weather history for previous 24 hours

 ConditionsComfort  
Time TempWeatherWind HumidityBarometerVisibility
4:53 AM
Nov 23
57 °FFog.5 mph96%29.63 "Hg5 mi
3:53 AM57 °FFog.3 mph100%29.62 "Hg5 mi
2:53 AM57 °FFog.5 mph100%29.64 "Hg0 mi
1:53 AM57 °FFog.7 mph100%29.64 "Hg0 mi
12:53 AM57 °FFog.6 mph100%29.67 "Hg4 mi
11:53 PM
Nov 22
58 °FFog.7 mph97%29.70 "Hg6 mi
10:53 PM57 °FFog.8 mph100%29.76 "Hg5 mi
9:53 PM60 °FClear.9 mph96%29.75 "Hg10 mi
8:53 PM60 °FLight rain. Fog.9 mph96%29.81 "Hg6 mi
7:53 PM61 °FLight rain. Fog.12 mph97%29.85 "Hg6 mi
7:04 PM61 °FRain. Fog.9 mph97%29.88 "Hg5 mi
6:53 PM61 °FRain. Fog.10 mph97%29.87 "Hg5 mi
5:53 PM62 °FHeavy rain. Fog.12 mph93%29.86 "Hg5 mi
4:53 PM63 °FLight rain. Mostly cloudy.15 mph87%29.87 "Hg9 mi
3:53 PM63 °FBroken clouds.15 mph84%29.87 "Hg10 mi
2:53 PM65 °FOvercast.16 mph76%29.87 "Hg10 mi
1:53 PM64 °FOvercast.15 mph78%29.88 "Hg10 mi
12:53 PM63 °FOvercast.12 mph81%29.94 "Hg10 mi
11:53 AM62 °FOvercast.18 mph80%29.99 "Hg10 mi
10:53 AM61 °FOvercast.16 mph83%30.03 "Hg10 mi
9:53 AM60 °FOvercast.16 mph86%30.05 "Hg10 mi
8:53 AM59 °FLight rain. Overcast.12 mph93%30.07 "Hg10 mi
7:53 AM59 °FOvercast.15 mph90%30.06 "Hg10 mi
6:53 AM59 °FOvercast.12 mph93%30.07 "Hg10 mi
Weather by CustomWeather, © 2014

See weather overviewHow to use our weather pages